GW2492 Weather Reports


Display with metric or nautical units.
time (UTC)temp
F
wind
direction
speed
MPH
gust
MPH
rain 1hr
in
rain 24hr
in
rain mn
in
humidity
%
barometer
mb
20260509153058 67 201 8.0 14.0 0.00 0.00 0.00 92 1013.2
20260509151554 67 223 9.0 11.0 0.00 0.00 0.00 91 1013.6
20260509150046 66 236 3.0 7.0 0.00 0.00 0.00 92 1013.9
20260509144547 66 232 4.0 6.0 0.00 0.00 0.00 93 1013.7
20260509143051 65 302 0.0 3.0 0.00 0.00 0.00 93 1013.8
20260509141544 65 0 0.0 1.0 0.00 0.00 0.00 93 1013.7
20260509140048 64 0 0.0 4.0 0.00 0.00 0.00 94 1013.6
20260509134541 64 333 3.0 8.0 0.00 0.00 0.00 94 1013.5
20260509133050 63 9 5.0 7.0 0.00 0.00 0.00 94 1013.3
20260509131548 62 360 3.0 7.0 0.00 0.00 0.00 94 1013.1
20260509130045 61 5 3.0 9.0 0.00 0.00 0.00 95 1013.1
20260509124542 60 11 4.0 10.0 0.00 0.00 0.00 94 1013.1
20260509123053 61 336 5.0 8.0 0.00 0.00 0.00 94 1012.8
20260509121556 61 5 4.0 9.0 0.00 0.00 0.00 94 1012.5
20260509120454 61 175 6.0 9.0 0.00 0.00 0.00 94 1012.2
20260509113043 60 205 6.0 9.0 0.00 0.00 0.00 93 1012.1
20260509111546 60 206 6.0 7.0 0.00 0.00 0.00 93 1012.1
20260509110044 60 219 6.0 8.0 0.00 0.00 0.00 93 1012.1
20260509103043 61 154 3.0 7.0 0.00 0.00 0.00 92 1012.4
20260509101552 62 144 3.0 9.0 0.00 0.00 0.00 92 1012.2
20260509100057 62 40 4.0 7.0 0.00 0.00 0.00 92 1013.0
20260509094550 62 48 4.0 8.0 0.00 0.00 0.00 92 1012.9
20260509093043 62 115 6.0 9.0 0.00 0.00 0.00 92 1012.2
20260509091557 62 153 2.0 6.0 0.00 0.00 0.00 92 1012.5
20260509090047 62 0 2.0 8.0 0.00 0.00 0.00 92 1012.4
20260509084546 62 168 4.0 6.0 0.00 0.00 0.00 91 1012.1
20260509083051 62 322 2.0 5.0 0.00 0.00 0.00 91 1012.0
20260509081546 62 304 1.0 4.0 0.00 0.00 0.00 90 1012.3
20260509080051 62 304 2.0 5.0 0.00 0.00 0.00 90 1012.7
20260509074551 63 280 4.0 10.0 0.00 0.00 0.00 89 1012.5
20260509073111 65 275 5.0 10.0 0.00 0.00 0.00 88 1012.3
20260509071545 66 198 9.0 15.0 0.00 0.00 0.00 88 1011.3
20260509070048 65 199 8.0 13.0 0.00 0.00 0.00 89 1011.2
20260509064544 64 174 7.0 9.0 0.00 0.00 0.00 89 1011.2
20260509063047 64 166 6.0 9.0 0.00 0.00 0.00 89 1011.0
20260509061540 64 172 8.0 11.0 0.00 0.00 0.00 89 1011.0
20260509060058 64 161 8.0 11.0 0.00 0.00 0.00 89 1011.1
20260509054553 65 143 5.0 9.0 0.00 0.00 0.00 88 1010.9
20260509053051 65 151 3.0 7.0 0.00 0.00 0.00 88 1011.0
20260509051543 66 129 3.0 6.0 0.00 0.00 0.00 88 1011.0
20260509050045 65 155 6.0 8.0 0.00 0.00 0.00 89 1011.1
20260509044547 65 168 6.0 9.0 0.00 0.00 0.00 89 1011.1
20260509043047 65 248 5.0 7.0 0.00 0.00 0.00 89 1010.9
20260509041545 66 248 3.0 4.0 0.00 0.00 0.00 88 1010.7
20260509040109 67 0 0.0 3.0 0.00 0.00 0.00 88 1010.6
20260509034550 67 0 0.0 3.0 0.00 0.00 0.00 88 1010.8
20260509033043 67 248 2.0 4.0 0.00 0.00 0.00 88 1011.0
20260509031546 67 248 4.0 7.0 0.00 0.00 0.00 87 1011.0
20260509030047 68 248 4.0 7.0 0.00 0.00 0.00 86 1010.9
20260509024548 69 248 5.0 7.0 0.00 0.00 0.00 84 1010.5
20260509023046 70 248 1.0 3.0 0.00 0.00 0.00 83 1010.1
20260509021545 71 248 2.0 3.0 0.00 0.00 0.00 82 1010.1
20260509020044 71 248 1.0 3.0 0.00 0.00 0.00 81 1009.9
20260509014550 72 248 1.0 3.0 0.00 0.00 0.00 81 1009.7
20260509013049 73 248 3.0 7.0 0.00 0.00 0.00 80 1009.4
20260509011557 73 248 2.0 4.0 0.00 0.00 0.00 79 1009.1
20260509010050 74 248 3.0 5.0 0.00 0.00 0.00 77 1009.2
20260509004603 75 248 3.0 5.0 0.00 0.00 0.00 74 1009.1
20260509003051 76 232 4.0 6.0 0.00 0.00 0.00 73 1009.0
20260509001543 76 223 4.0 7.0 0.00 0.00 0.00 71 1008.9
20260509000041 77 240 5.0 9.0 0.00 0.00 0.00 69 1008.9
20260508234548 78 251 4.0 10.0 0.00 0.00 0.00 68 1008.9
20260508233044 78 193 3.0 7.0 0.00 0.00 0.00 68 1008.8
20260508231542 78 199 5.0 10.0 0.00 0.00 0.00 68 1008.7
20260508230050 77 198 7.0 12.0 0.00 0.00 0.00 70 1008.5
20260508224553 77 170 10.0 16.0 0.00 0.01 0.00 70 1008.4
20260508223050 77 175 11.0 17.0 0.00 0.01 0.00 72 1008.6
20260508221545 77 219 10.0 15.0 0.00 0.01 0.00 72 1008.6
20260508220047 76 211 9.0 15.0 0.00 0.01 0.00 76 1008.9
20260508214552 75 175 9.0 13.0 0.00 0.01 0.00 77 1009.1
20260508213048 76 221 10.0 17.0 0.00 0.01 0.00 75 1009.2
20260508211545 75 227 8.0 15.0 0.00 0.01 0.00 77 1009.4
20260508210044 74 212 10.0 14.0 0.00 0.01 0.00 77 1009.6
20260508204545 74 182 8.0 14.0 0.00 0.01 0.00 80 1010.0
20260508203056 73 240 10.0 13.0 0.00 0.01 0.00 79 1010.3
20260508201543 72 259 6.0 11.0 0.00 0.01 0.00 81 1010.6
20260508200046 72 267 5.0 10.0 0.00 0.01 0.00 80 1010.9
20260508194544 72 257 8.0 11.0 0.00 0.83 0.00 79 1011.0
20260508193055 72 290 3.0 9.0 0.00 0.83 0.00 80 1011.1
20260508191544 71 259 5.0 9.0 0.00 0.83 0.00 80 1011.2
20260508190040 72 257 3.0 6.0 0.00 0.83 0.00 79 1011.4
20260508184558 72 288 1.0 7.0 0.00 0.83 0.00 78 1011.6
20260508183047 72 288 3.0 7.0 0.00 0.83 0.00 78 1011.7
20260508181555 72 345 2.0 5.0 0.00 0.83 0.00 78 1012.0
20260508180044 70 0 1.0 7.0 0.00 0.83 0.00 81 1012.2
20260508174545 71 266 1.0 4.0 0.00 0.83 0.00 80 1012.4
20260508173045 71 321 1.0 5.0 0.00 0.83 0.00 79 1012.5
20260508171545 70 325 1.0 3.0 0.00 0.83 0.00 81 1012.7
20260508170043 69 202 2.0 7.0 0.00 0.83 0.00 81 1012.8
20260508164545 69 197 1.0 6.0 0.00 0.83 0.00 81 1012.8
20260508163048 69 333 1.0 5.0 0.00 0.83 0.00 82 1013.2
20260508161545 67 242 1.0 4.0 0.00 0.83 0.00 83 1013.3
20260508154544 65 195 1.0 4.0 0.00 0.83 0.00 84 1013.7